| time (UTC) | temp C | wind direction | speed KPH | gust KPH | rain 1hr cm | rain 24hr cm | rain mn cm | humidity % | barometer mb |
| 20260506062516 | 21 | 322 | 1.6 | 4.8 | 0.00 | 0.00 | 0.00 | 68 | 1014.9 |
| 20260506061514 | 21 | 354 | 1.6 | 4.8 | 0.00 | 0.00 | 0.00 | 67 | 1014.9 |
| 20260506060535 | 21 | 283 | 1.6 | 6.4 | 0.00 | 0.00 | 0.00 | 67 | 1014.9 |
| 20260506050547 | 20 | 340 | 1.6 | 3.2 | 0.00 | 0.00 | 0.00 | 63 | 1014.7 |
| 20260506044519 | 20 | 11 | 0.0 | 0.0 | 0.00 | 0.00 | 0.00 | 64 | 1014.3 |
| 20260506043522 | 20 | 11 | 1.6 | 4.8 | 0.00 | 0.00 | 0.00 | 63 | 1014.6 |
| 20260506042520 | 20 | 62 | 1.6 | 1.6 | 0.00 | 0.00 | 0.00 | 63 | 1014.8 |
| 20260506041518 | 20 | 62 | 0.0 | 1.6 | 0.00 | 0.00 | 0.00 | 61 | 1014.9 |
| 20260506040602 | 20 | 62 | 0.0 | 3.2 | 0.00 | 0.00 | 0.00 | 61 | 1014.9 |
| 20260506035513 | 20 | 62 | 0.0 | 3.2 | 0.00 | 0.00 | 0.00 | 61 | 1014.8 |
| 20260506034532 | 20 | 62 | 0.0 | 3.2 | 0.00 | 0.00 | 0.00 | 62 | 1014.7 |
| 20260506033515 | 20 | 62 | 0.0 | 1.6 | 0.00 | 0.00 | 0.00 | 61 | 1014.7 |
| 20260506032512 | 20 | 62 | 0.0 | 1.6 | 0.00 | 0.00 | 0.00 | 59 | 1014.9 |
| 20260506031551 | 20 | 62 | 0.0 | 3.2 | 0.00 | 0.00 | 0.00 | 61 | 1014.9 |
| 20260506030550 | 20 | 62 | 0.0 | 3.2 | 0.00 | 0.00 | 0.00 | 59 | 1014.9 |
| 20260506025548 | 20 | 63 | 0.0 | 1.6 | 0.00 | 0.00 | 0.00 | 63 | 1015.0 |
| 20260506024525 | 20 | 63 | 0.0 | 1.6 | 0.00 | 0.00 | 0.00 | 64 | 1015.1 |
| 20260506023546 | 20 | 63 | 0.0 | 1.6 | 0.00 | 0.00 | 0.00 | 61 | 1015.0 |
| 20260506022522 | 20 | 63 | 0.0 | 1.6 | 0.00 | 0.00 | 0.00 | 60 | 1014.8 |
| 20260506021545 | 20 | 63 | 1.6 | 1.6 | 0.00 | 0.00 | 0.00 | 62 | 1014.5 |
| 20260506020544 | 20 | 63 | 0.0 | 1.6 | 0.00 | 0.00 | 0.00 | 62 | 1014.7 |
| 20260506015517 | 20 | 63 | 0.0 | 1.6 | 0.00 | 0.00 | 0.00 | 60 | 1014.7 |
| 20260506014536 | 20 | 63 | 0.0 | 1.6 | 0.00 | 0.00 | 0.00 | 60 | 1014.7 |
| 20260506013600 | 21 | 63 | 0.0 | 1.6 | 0.00 | 0.00 | 0.00 | 58 | 1014.6 |
| 20260506012535 | 21 | 63 | 0.0 | 3.2 | 0.00 | 0.00 | 0.00 | 57 | 1014.6 |
| 20260506011533 | 21 | 63 | 0.0 | 3.2 | 0.00 | 0.00 | 0.00 | 58 | 1014.4 |
| 20260506010557 | 21 | 63 | 1.6 | 3.2 | 0.00 | 0.00 | 0.00 | 55 | 1014.3 |
| 20260506005551 | 21 | 63 | 0.0 | 3.2 | 0.00 | 0.00 | 0.00 | 56 | 1014.4 |
| 20260506004527 | 21 | 31 | 1.6 | 4.8 | 0.00 | 0.00 | 0.00 | 55 | 1014.4 |
| 20260506003526 | 22 | 25 | 0.0 | 0.0 | 0.00 | 0.00 | 0.00 | 53 | 1014.4 |
| 20260506002528 | 22 | 25 | 0.0 | 0.0 | 0.00 | 0.00 | 0.00 | 54 | 1014.4 |
| 20260506001547 | 22 | 25 | 0.0 | 0.0 | 0.00 | 0.00 | 0.00 | 54 | 1014.3 |
| 20260506000605 | 22 | 25 | 0.0 | 1.6 | 0.00 | 0.00 | 0.00 | 53 | 1014.4 |
| 20260505235542 | 22 | 25 | 0.0 | 1.6 | 0.00 | 0.00 | 0.00 | 54 | 1014.5 |
| 20260505234541 | 23 | 25 | 0.0 | 0.0 | 0.00 | 0.00 | 0.00 | 55 | 1014.4 |
| 20260505233539 | 23 | 25 | 0.0 | 3.2 | 0.00 | 0.00 | 0.00 | 52 | 1014.5 |
| 20260505232537 | 23 | 25 | 0.0 | 1.6 | 0.00 | 0.00 | 0.00 | 51 | 1014.4 |
| 20260505231600 | 23 | 23 | 0.0 | 3.2 | 0.00 | 0.00 | 0.00 | 49 | 1014.4 |
| 20260505230559 | 24 | 62 | 0.0 | 3.2 | 0.00 | 0.00 | 0.00 | 48 | 1014.2 |
| 20260505225532 | 24 | 37 | 1.6 | 4.8 | 0.00 | 0.00 | 0.00 | 46 | 1014.3 |
| 20260505224534 | 24 | 210 | 1.6 | 8.0 | 0.00 | 0.00 | 0.00 | 45 | 1014.3 |
| 20260505223533 | 24 | 345 | 1.6 | 6.4 | 0.00 | 0.00 | 0.00 | 48 | 1014.4 |
| 20260505222531 | 24 | 70 | 1.6 | 4.8 | 0.00 | 0.00 | 0.00 | 47 | 1014.4 |
| 20260505221534 | 25 | 52 | 1.6 | 4.8 | 0.00 | 0.00 | 0.00 | 46 | 1014.4 |
| 20260505220613 | 25 | 87 | 3.2 | 6.4 | 0.00 | 0.00 | 0.00 | 43 | 1014.4 |
| 20260505215525 | 25 | 4 | 1.6 | 6.4 | 0.00 | 0.00 | 0.00 | 45 | 1014.1 |
| 20260505214543 | 25 | 30 | 1.6 | 4.8 | 0.00 | 0.00 | 0.00 | 44 | 1014.3 |
| 20260505213526 | 25 | 85 | 3.2 | 9.7 | 0.00 | 0.00 | 0.00 | 43 | 1014.4 |
| 20260505212523 | 26 | 345 | 3.2 | 4.8 | 0.00 | 0.00 | 0.00 | 43 | 1014.3 |
| 20260505211542 | 26 | 337 | 1.6 | 6.4 | 0.00 | 0.00 | 0.00 | 43 | 1014.4 |
| 20260505210621 | 26 | 122 | 3.2 | 8.0 | 0.00 | 0.00 | 0.00 | 44 | 1014.4 |
| 20260505205538 | 25 | 319 | 3.2 | 8.0 | 0.00 | 0.00 | 0.00 | 44 | 1014.4 |
| 20260505204535 | 26 | 311 | 1.6 | 6.4 | 0.00 | 0.00 | 0.00 | 44 | 1014.8 |
| 20260505203556 | 25 | 4 | 3.2 | 16.1 | 0.00 | 0.00 | 0.00 | 43 | 1014.6 |
| 20260505202536 | 25 | 4 | 3.2 | 9.7 | 0.00 | 0.00 | 0.00 | 43 | 1014.9 |
| 20260505201534 | 25 | 347 | 3.2 | 9.7 | 0.00 | 0.00 | 0.00 | 43 | 1014.9 |
| 20260505200554 | 25 | 129 | 1.6 | 9.7 | 0.00 | 0.00 | 0.00 | 44 | 1015.0 |
| 20260505195532 | 25 | 31 | 3.2 | 6.4 | 0.00 | 0.00 | 0.00 | 45 | 1015.2 |
| 20260505194531 | 25 | 354 | 4.8 | 9.7 | 0.00 | 0.00 | 0.00 | 43 | 1015.4 |
| 20260505193529 | 25 | 301 | 3.2 | 9.7 | 0.00 | 0.00 | 0.00 | 45 | 1015.6 |
| 20260505192527 | 25 | 193 | 3.2 | 9.7 | 0.00 | 0.00 | 0.00 | 44 | 1015.6 |
| 20260505191528 | 25 | 332 | 1.6 | 8.0 | 0.00 | 0.00 | 0.00 | 45 | 1015.6 |
| 20260505190548 | 25 | 354 | 4.8 | 9.7 | 0.00 | 0.00 | 0.00 | 46 | 1015.8 |
| 20260505185541 | 25 | 321 | 3.2 | 12.9 | 0.00 | 0.00 | 0.00 | 41 | 1015.8 |
| 20260505184523 | 25 | 287 | 1.6 | 12.9 | 0.00 | 0.00 | 0.00 | 45 | 1015.8 |
| 20260505183543 | 25 | 341 | 4.8 | 9.7 | 0.00 | 0.00 | 0.00 | 45 | 1015.8 |
| 20260505182540 | 25 | 331 | 3.2 | 12.9 | 0.00 | 0.00 | 0.00 | 45 | 1015.9 |
| 20260505181542 | 25 | 84 | 1.6 | 9.7 | 0.00 | 0.00 | 0.00 | 48 | 1016.2 |
| 20260505180602 | 25 | 133 | 3.2 | 8.0 | 0.00 | 0.00 | 0.00 | 46 | 1016.3 |
| 20260505175535 | 24 | 289 | 3.2 | 9.7 | 0.00 | 0.00 | 0.00 | 48 | 1016.5 |
| 20260505174533 | 25 | 39 | 3.2 | 4.8 | 0.00 | 0.00 | 0.00 | 49 | 1016.6 |
| 20260505173536 | 25 | 151 | 4.8 | 12.9 | 0.00 | 0.00 | 0.00 | 48 | 1016.8 |
| 20260505172534 | 24 | 12 | 3.2 | 6.4 | 0.00 | 0.00 | 0.00 | 49 | 1016.9 |
| 20260505171553 | 24 | 354 | 3.2 | 9.7 | 0.00 | 0.00 | 0.00 | 47 | 1017.0 |
| 20260505170556 | 25 | 301 | 4.8 | 14.5 | 0.00 | 0.00 | 0.00 | 45 | 1017.1 |
| 20260505165529 | 25 | 317 | 3.2 | 8.0 | 0.00 | 0.00 | 0.00 | 49 | 1017.0 |
| 20260505164527 | 25 | 326 | 3.2 | 9.7 | 0.00 | 0.00 | 0.00 | 50 | 1016.9 |
| 20260505163547 | 25 | 22 | 3.2 | 16.1 | 0.00 | 0.00 | 0.00 | 50 | 1016.7 |
| 20260505162548 | 25 | 318 | 1.6 | 16.1 | 0.00 | 0.00 | 0.00 | 48 | 1016.9 |
| 20260505161525 | 24 | 312 | 3.2 | 6.4 | 0.00 | 0.00 | 0.00 | 49 | 1016.9 |
| 20260505160604 | 24 | 293 | 3.2 | 8.0 | 0.00 | 0.00 | 0.00 | 50 | 1017.0 |
| 20260505152537 | 23 | 125 | 1.6 | 6.4 | 0.00 | 0.00 | 0.00 | 58 | 1017.3 |
| 20260505151539 | 22 | 91 | 1.6 | 4.8 | 0.00 | 0.00 | 0.00 | 63 | 1017.1 |
| 20260505150558 | 21 | 35 | 0.0 | 4.8 | 0.00 | 0.00 | 0.00 | 64 | 1017.5 |
| 20260505140613 | 18 | 59 | 0.0 | 3.2 | 0.00 | 0.00 | 0.00 | 71 | 1017.7 |
| 20260505124537 | 12 | 321 | 0.0 | 0.0 | 0.00 | 0.00 | 0.00 | 91 | 1016.9 |
| 20260505123537 | 11 | 321 | 0.0 | 0.0 | 0.00 | 0.00 | 0.00 | 92 | 1017.1 |
| 20260505122559 | 11 | 321 | 0.0 | 0.0 | 0.00 | 0.00 | 0.00 | 92 | 1017.0 |
| 20260505121555 | 10 | 324 | 0.0 | 0.0 | 0.00 | 0.00 | 0.00 | 95 | 1016.9 |
| 20260505120554 | 10 | 324 | 0.0 | 0.0 | 0.00 | 0.00 | 0.00 | 95 | 1016.8 |
| 20260505115532 | 9 | 324 | 0.0 | 0.0 | 0.00 | 0.00 | 0.00 | 95 | 1016.9 |
| 20260505114529 | 8 | 324 | 0.0 | 0.0 | 0.00 | 0.00 | 0.00 | 95 | 1016.8 |
| 20260505113550 | 8 | 324 | 0.0 | 0.0 | 0.00 | 0.00 | 0.00 | 95 | 1016.6 |
| 20260505112526 | 8 | 324 | 0.0 | 0.0 | 0.00 | 0.00 | 0.00 | 95 | 1016.3 |
| 20260505111528 | 8 | 324 | 0.0 | 0.0 | 0.00 | 0.00 | 0.00 | 95 | 1016.1 |
| 20260505110548 | 8 | 324 | 0.0 | 0.0 | 0.00 | 0.00 | 0.00 | 95 | 1015.9 |
| 20260505101537 | 8 | 324 | 0.0 | 0.0 | 0.00 | 0.00 | 0.00 | 94 | 1015.7 |
| 20260505100600 | 8 | 324 | 0.0 | 0.0 | 0.00 | 0.00 | 0.00 | 94 | 1015.8 |
| 20260505095533 | 8 | 324 | 0.0 | 0.0 | 0.00 | 0.00 | 0.00 | 94 | 1016.0 |
| 20260505094531 | 8 | 324 | 0.0 | 0.0 | 0.00 | 0.00 | 0.00 | 94 | 1016.1 |
| 20260505093535 | 8 | 324 | 0.0 | 0.0 | 0.00 | 0.00 | 0.00 | 93 | 1016.0 |
| 20260505092532 | 8 | 324 | 0.0 | 0.0 | 0.00 | 0.00 | 0.00 | 93 | 1015.8 |
| 20260505091530 | 8 | 324 | 0.0 | 0.0 | 0.00 | 0.00 | 0.00 | 93 | 1016.0 |
| 20260505090555 | 8 | 324 | 0.0 | 0.0 | 0.00 | 0.00 | 0.00 | 93 | 1016.1 |
| 20260505085548 | 8 | 324 | 0.0 | 0.0 | 0.00 | 0.00 | 0.00 | 93 | 1016.2 |
| 20260505084525 | 8 | 324 | 0.0 | 0.0 | 0.00 | 0.00 | 0.00 | 92 | 1016.2 |
| 20260505083524 | 8 | 324 | 0.0 | 0.0 | 0.00 | 0.00 | 0.00 | 92 | 1016.2 |
| 20260505082526 | 9 | 324 | 0.0 | 0.0 | 0.00 | 0.00 | 0.00 | 92 | 1016.2 |
| 20260505081545 | 9 | 324 | 0.0 | 0.0 | 0.00 | 0.00 | 0.00 | 92 | 1016.3 |
| 20260505080603 | 9 | 324 | 0.0 | 0.0 | 0.00 | 0.00 | 0.00 | 92 | 1016.2 |
| 20260505075541 | 9 | 324 | 0.0 | 0.0 | 0.00 | 0.00 | 0.00 | 92 | 1016.0 |
| 20260505074539 | 9 | 324 | 0.0 | 0.0 | 0.00 | 0.00 | 0.00 | 91 | 1015.9 |
| 20260505073559 | 10 | 324 | 0.0 | 0.0 | 0.00 | 0.00 | 0.00 | 91 | 1016.0 |
| 20260505072536 | 10 | 324 | 0.0 | 0.0 | 0.00 | 0.00 | 0.00 | 91 | 1016.1 |
| 20260505071557 | 10 | 324 | 0.0 | 0.0 | 0.00 | 0.00 | 0.00 | 91 | 1016.1 |
| 20260505070616 | 10 | 324 | 0.0 | 0.0 | 0.00 | 0.00 | 0.00 | 90 | 1016.1 |